SL-8 DEB, 2647

Orbit data source: Space-Track

SL-8 DEB, 2647 is space debris in LEO originally from a launch on Sat, 18 Sep 1965 UTC launched from the Tyuratam Missile And Space Complex (TTMTR). Debris objects in space refer to the collection of defunct objects orbiting the Earth. Examples of debris include non-operational satellites, rocket bodies, and fragments generated from explosions, collisions, or faulty payload assembly.

Loading next visibility...
Identifier
2647, 1965-073L
Orbit
LEO
Country
Flag of CISCIS
Related business
Manufacturer
Unknown
Mission
Spacecraft
Bus & Motor
Unknown
Mass
Unknown
Launch date (UTC)
1965-09-18 (60 years ago)
Launch vehicle
Unknown
Launch site
Tyuratam Missile And Space Complex (TTMTR)
Object type
Payload
Rocket body
Debris
Shape & HBR
Unknown
Radar Cross Section
Small (<0.1 m²)

Expand to show TLE details & history
Last TLE update: 1 day ago

TLE from 1 day ago
0 SL-8 DEB
1 02647U 65073L   25242.15467028  .00000008  00000-0  68886-3 0  9995
2 02647  56.0626 245.1574 0188043  38.8232  34.0456 12.43649289 80428
Epoch: 2025-08-30T03:42Z
TLE epoch observation values (Epoch: 2025-08-30T03:42:43.512Z)
Latitude
53.06119°
Longitude
-86.17732°
Altitude
1,376.383 km
Speed
7.232 km/s
True Right ascension
20h 32m 23s
True Declination
52° 54' 33"
Sunlit
Object was in daylight at epoch
Visualization orbit readout
Latitude
Unknown
Longitude
Unknown
Altitude
Unknown
Speed
Unknown
Apparent Right ascension
Unknown
Apparent Declination
Unknown
Sunlit
N/A
Visualization observer readout
Local Sidereal Time
20:21:02
Azimuth
Unknown
Elevation
Unknown
Doppler factor
Unknown
Orbital elements
Apogee altitude
1,638.968 km
Perigee altitude
1,343.021 km
Semi-major axis
7,869.131 km
Eccentricity
0.0188
Inclination
56.0626°
RAAN
245.1574°
Arg. of periapsis
38.8232°
True anomaly
35.27583°
Mean anomaly
34.0456°
Eccentric anomaly
34.6583°
Mean motion
3.10923 °/min
Orbital period
115.78 mins
BSTAR
0.00068886
Loading maneuver chart data...
Computing Atmospheric mass density...
Loading historical data...
Loading historical data...
Loading historical data...
Loading historical data...
Loading historical data...
Loading historical data...
Loading historical data...

Documentation

Showing up to 5 results
|